TimeCDT,TemperatureF,Dew PointF,Humidity,Sea Level PressureIn,VisibilityMPH,Wind Direction,Wind SpeedMPH,Gust SpeedMPH,PrecipitationIn,Events,Conditions,WindDirDegrees,DateUTC
12:54 AM,64.0,61.0,90,30.12,5.0,Calm,Calm,-,N/A,,Scattered Clouds,0,2012-10-10 05:54:00
1:54 AM,64.9,63.0,93,30.14,8.0,Calm,Calm,-,N/A,,Overcast,0,2012-10-10 06:54:00
2:54 AM,66.0,63.0,90,30.14,10.0,Calm,Calm,-,N/A,,Overcast,0,2012-10-10 07:54:00
3:54 AM,66.9,63.0,87,30.12,10.0,Calm,Calm,-,N/A,,Overcast,0,2012-10-10 08:54:00
4:54 AM,66.0,62.1,87,30.13,10.0,Calm,Calm,-,N/A,,Partly Cloudy,0,2012-10-10 09:54:00
5:54 AM,64.0,61.0,90,30.14,10.0,Calm,Calm,-,N/A,,Partly Cloudy,0,2012-10-10 10:54:00
6:54 AM,63.0,61.0,93,30.17,5.0,Calm,Calm,-,N/A,,Partly Cloudy,0,2012-10-10 11:54:00
7:54 AM,64.9,63.0,93,30.18,8.0,Calm,Calm,-,N/A,,Scattered Clouds,0,2012-10-10 12:54:00
8:54 AM,72.0,64.0,76,30.20,10.0,Calm,Calm,-,N/A,,Mostly Cloudy,0,2012-10-10 13:54:00
9:54 AM,75.0,66.0,73,30.22,10.0,Calm,Calm,-,N/A,,Mostly Cloudy,0,2012-10-10 14:54:00
10:54 AM,80.1,68.0,67,30.22,10.0,Calm,Calm,-,N/A,,Partly Cloudy,0,2012-10-10 15:54:00
11:54 AM,81.0,66.9,62,30.21,10.0,Calm,Calm,-,N/A,,Mostly Cloudy,0,2012-10-10 16:54:00
12:54 PM,84.0,68.0,58,30.19,10.0,SSW,3.5,-,N/A,,Partly Cloudy,210,2012-10-10 17:54:00
1:54 PM,82.9,68.0,60,30.16,10.0,Variable,3.5,-,N/A,,Mostly Cloudy,0,2012-10-10 18:54:00
2:54 PM,82.9,66.9,58,30.13,10.0,Calm,Calm,-,N/A,,Mostly Cloudy,0,2012-10-10 19:54:00
3:54 PM,87.1,66.0,49,30.12,10.0,Variable,4.6,-,N/A,,Partly Cloudy,0,2012-10-10 20:54:00
4:54 PM,84.9,68.0,57,30.12,10.0,Calm,Calm,-,N/A,,Scattered Clouds,0,2012-10-10 21:54:00
5:54 PM,80.1,69.1,69,30.13,10.0,Calm,Calm,-,N/A,,Scattered Clouds,0,2012-10-10 22:54:00
6:54 PM,78.1,69.1,74,30.16,10.0,Variable,4.6,-,N/A,,Mostly Cloudy,0,2012-10-10 23:54:00
7:54 PM,77.0,68.0,74,30.18,10.0,Calm,Calm,-,N/A,,Overcast,0,2012-10-11 00:54:00
8:54 PM,73.9,68.0,82,30.19,10.0,Calm,Calm,-,N/A,,Partly Cloudy,0,2012-10-11 01:54:00
9:54 PM,73.0,66.9,81,30.20,9.0,Calm,Calm,-,N/A,,Clear,0,2012-10-11 02:54:00
10:54 PM,71.1,66.9,87,30.21,10.0,Calm,Calm,-,N/A,,Mostly Cloudy,0,2012-10-11 03:54:00
11:54 PM,70.0,66.0,87,30.21,10.0,Calm,Calm,-,N/A,,Scattered Clouds,0,2012-10-11 04:54:00